Location: Unspecified
(0.0000°N, 0.0000°E)
Time: 23:49:02
(UTC+00:00)

GONETS D1M 1 - Pass Details

Date: 18 May 2026
Orbit: 1435 x 1447 km, 82.5° (Epoch: 7 June)

Event Time Altitude Azimuth Distance (km) Brightness Sun altitude
Rises 05:08:46 0° 168° (SSE) 4,535 9.2 -11.2°
Reaches altitude 10° 05:11:51 10° 161° (SSE) 3,557 8.7 -10.5°
Maximum altitude 05:19:42 41° 93° (E) 1,976 8.0 -8.7°
Drops below altitude 10° 05:27:32 10° 26° (NNE) 3,553 9.5 -6.8°
Sets 05:30:34 0° 19° (NNE) 4,530 9.9 -6.1°
